Location: Fennell Observatory
(35.2597°N, 89.5125°W)
Time: 15:35:29
(UTC-05:00)

Daily predictions for brighter satellites

Satellite Brightness Start Highest point End
(mag) Time Altitude Azimuth Time Altitude Azimuth Time Altitude Azimuth
Cosmos 1536 Rocket 4.4 20:27:09 10° SSE 20:30:55 30° E 20:34:41 10° NNE
Cosmos 1437 4.0 20:30:26 10° SSE 20:33:03 23° E 20:35:40 10° NE
CZ-4B DEB 4.4 20:32:14 10° ESE 20:34:19 18° ENE 20:36:24 10° NNE
Helios 1A 3.8 20:30:35 10° SE 20:34:24 34° ENE 20:38:13 10° N
Cosmos 724 4.3 20:29:49 10° NNW 20:35:51 83° ENE 20:41:42 10° SSE
NOSS 3-2 (C) 4.2 20:33:41 10° NNW 20:41:25 89° WSW 20:49:40 10° SSE
Meteor 1-29 3.7 20:38:59 10° NNE 20:42:03 32° E 20:45:05 10° SSE
YAOGAN 6 4.2 20:42:06 10° ESE 20:44:27 18° ENE 20:46:53 10° NNE
SAR-Lupe-4 4.5 20:41:23 10° SE 20:44:36 32° ENE 20:47:50 10° N
ERS-1 Rocket 4.4 20:41:37 10° ESE 20:45:19 21° ENE 20:49:03 10° NNE
Cosmos 2369 Rocket 2.8 20:41:06 10° NNW 20:46:39 58° WSW 20:52:12 10° S
Resurs 1-3 4.0 20:42:29 10° S 20:46:51 68° W 20:51:14 10° NNW
Cosmos 1818 3.6 20:42:33 10° SSW 20:47:59 87° ESE 20:53:27 10° NNE
RESURS DK-1 3.5 20:45:39 10° SW 20:49:38 48° WNW 20:53:39 10° N
Cosmos 405 Rocket 3.5 20:46:46 10° SSE 20:50:02 29° E 20:53:21 10° NNE
Cosmos 1544 Rocket 3.5 20:46:56 10° N 20:51:15 69° E 20:55:32 10° SSE
Okean 1 3.4 20:48:33 10° S 20:52:30 78° W 20:56:29 10° N
Resurs 01 Rocket 2.6 20:48:56 10° S 20:53:13 49° W 20:57:31 10° NNW
NOSS 2-2 (D) 3.3 20:49:23 10° SSW 20:53:18 70° ESE 20:57:34 10° NE
Cosmos 773 Rocket 4.0 20:53:26 10° SSW 20:58:36 87° WNW 21:03:45 10° NNE
Cosmos 1975 2.8 20:55:08 10° N 20:59:12 77° E 21:03:16 10° S
SAR-Lupe-1 4.5 20:58:34 15° SE 21:01:21 46° ENE 21:04:48 10° N
Cosmos 1943 Rocket 2.2 20:56:08 10° NNW 21:01:45 84° WSW 21:07:17 10° SSE
USA 81 4.0 20:56:35 10° S 21:01:48 68° E 21:07:04 10° N
CENTAUR R/B 3.5 20:54:48 10° NNW 21:02:33 51° NE 21:09:18 16° SE
Cosmos 1441 Rocket 4.5 21:01:18 17° SE 21:02:49 21° E 21:05:42 10° NE
Meteor 1-13 Rocket 4.4 20:58:38 10° S 21:04:28 59° E 21:10:16 10° NNE
Cosmos 1500 3.3 21:01:32 10° N 21:05:17 73° W 21:09:01 10° S
Cosmos 1939 Rocket 2.7 21:08:04 14° SSE 21:11:25 78° ENE 21:15:17 10° N
NOSS 2-2 (C) 3.7 21:08:07 10° SW 21:12:04 71° WNW 21:16:26 10° NNE
Helios 1B rocket 2.8 21:08:27 10° N 21:12:33 69° WNW 21:16:39 10° SSW
COSMOS 2406 3.2 21:08:26 10° S 21:14:07 71° ESE 21:19:49 10° NNE
SL-27 R/B 3.2 21:14:28 21° SSE 21:16:14 34° ESE 21:19:35 10° NE
ARGOS 4.4 21:13:33 17° ESE 21:16:19 25° ENE 21:20:37 10° NNE
Cosmos 1455 Rocket 3.3 21:12:15 10° NNW 21:16:36 70° W 21:20:54 10° S
COSMOS 2455 2.9 21:11:32 10° NNW 21:17:34 81° WSW 21:22:27 16° SSE
Cosmos 1680 Rocket 3.4 21:16:11 10° S 21:21:23 69° ESE 21:26:35 10° NNE
SPOT 5 4.0 21:23:05 19° E 21:24:27 23° ENE 21:27:49 10° NNE
Cosmos 1346 2.6 21:23:24 26° S 21:24:47 81° E 21:27:33 10° N
Cosmos 1743 2.6 21:26:30 10° N 21:30:24 87° E 21:32:37 25° S
Envisat 3.8 21:29:36 10° S 21:34:30 49° W 21:39:25 10° NNW
Cosmos 405 4.0 21:31:30 10° NNE 21:34:40 30° ENE 21:34:56 29° E
ASTRO E2 3.0 21:33:29 10° WSW 21:37:18 46° S 21:38:11 38° SSE
Terra 4.0 21:37:12 10° ENE 21:38:06 11° ENE 21:39:16 10° NE
ASTEX 1 3.3 21:36:30 24° SSE 21:39:31 76° E 21:44:25 10° N
MetOp-B 4.3 21:40:01 29° SE 21:42:33 56° ENE 21:47:46 10° N
Tiangong 2 1.6 21:40:28 10° WSW 21:43:36 60° NNW 21:45:36 20° NE
CRYOSAT 2 4.2 21:42:57 27° SSE 21:45:35 79° E 21:50:27 10° N
Aureole 3 Rocket 4.2 21:40:48 10° SSW 21:48:02 67° W 21:53:09 10° N
Okean 1-7 Rocket 3.5 21:46:16 29° S 21:48:27 76° E 21:52:56 10° N
Cosmos 2327 Rocket 4.5 21:42:44 10° N 21:48:57 87° W 21:53:13 22° S
Cosmos 1437 Rocket 3.9 21:46:14 10° NNE 21:49:25 27° ENE 21:49:25 27° ENE
Okean 2 3.5 21:50:04 46° ESE 21:50:34 49° E 21:54:32 10° NNE
Cosmos 1238 Rocket 4.1 21:46:05 13° S 21:52:09 87° E 21:58:51 10° N
Aureole 1 Rocket 3.2 21:50:41 10° SSW 21:54:11 49° WNW 21:57:12 10° N
ISS -3.2 21:52:32 10° WSW 21:55:46 57° NW 21:59:01 10° NE
Meteor 2-9 Rocket 4.1 21:51:45 10° N 21:57:15 83° E 21:59:47 34° SSE
Meteor 2-4 Rocket 4.0 21:55:13 10° SSW 22:00:44 66° W 22:06:28 10° N
Cosmos 1666 3.1 21:57:09 10° NNW 22:00:49 55° W 22:01:55 38° SSW
Cosmos 1892 Rocket 4.1 22:01:37 41° E 22:01:37 41° E 22:05:43 10° NNE
DNEPR-1 R/B 3.5 21:59:25 10° NNW 22:03:42 75° ENE 22:04:38 55° SE
Cosmos 1371 Rocket 4.3 22:01:47 10° N 22:07:00 52° ENE 22:08:06 44° ESE
OAO 2 Rocket 3.2 22:03:23 10° W 22:08:21 88° S 22:10:00 43° E
Cosmos 1833 Rocket 4.0 22:11:23 24° E 22:11:23 24° E 22:14:37 10° NE
Cosmos 921 Rocket 4.3 22:09:12 10° N 22:12:53 27° ENE 22:12:53 27° ENE
USA 245 4.3 22:16:10 28° N 22:16:10 28° N 22:17:30 10° N
Cosmos 2181 Rocket 4.1 22:13:08 42° SSE 22:15:10 60° E 22:21:23 10° NNE
Cosmos 1606 Rocket 3.5 22:14:34 10° N 22:18:50 67° ENE 22:18:50 67° ENE
YAOGAN 11 4.1 22:18:33 59° SSW 22:19:11 70° WSW 22:23:30 10° NNW
SL-24 DEB 4.0 22:21:37 72° SE 22:22:00 78° E 22:26:37 10° N
ERS-1 Rocket 4.1 22:21:29 24° SSW 22:23:48 38° W 22:28:29 10° NNW
Cosmos 1515 4.1 22:28:01 58° N 22:28:01 58° N 22:31:07 10° N
Cosmos 1726 Rocket 3.5 22:25:30 10° N 22:29:29 69° NE 22:29:29 69° NE
H-2A R/B 1.7 22:33:29 76° SE 22:33:50 83° ENE 22:38:50 10° N
USA 267 3.5 22:28:31 10° NE 22:34:02 45° ESE 22:34:02 45° ESE
Cosmos 2058 Rocket 3.4 22:32:05 10° N 22:35:51 56° NE 22:35:51 56° NE
Cosmos 1295 Rocket 4.4 22:32:49 10° N 22:39:01 78° E 22:40:10 61° SSE
Cosmos 1980 Rocket 4.2 22:38:18 10° NNE 22:41:22 15° NE 22:42:26 14° ENE
DMSP B5D2-2 3.9 22:41:52 10° NNE 22:47:11 89° W 22:47:34 78° SSW
Cosmos 1624 Rocket 4.0 22:45:50 10° NNW 22:51:06 73° WSW 22:51:17 72° SW
CENTAUR R/B 4.1 22:45:53 10° NW 22:53:11 37° WSW 22:56:31 27° SSW
ARGOS 4.2 22:55:04 33° SW 22:56:18 37° W 23:01:18 10° NNW
Landsat 7 4.1 23:00:33 65° WNW 23:00:33 65° WNW 23:04:53 10° NNW
H-2A R/B 2.7 23:01:56 55° N 23:01:56 55° N 23:05:31 10° N
SPOT 5 4.3 23:02:19 25° W 23:02:24 25° W 23:05:59 10° NW
SL-8 Rocket 3.9 23:00:53 10° N 23:07:09 83° W 23:07:42 75° SSW
Cosmos 2056 Rocket 4.0 23:04:48 10° NNW 23:09:30 50° W 23:09:30 50° W
Cosmos 2082 Rocket 2.1 23:09:49 82° WNW 23:09:49 82° WNW 23:15:30 10° NNE
Cosmos 2278 3.6 23:05:11 10° NNW 23:10:40 83° NNW 23:10:40 83° NNW
Cosmos 2366 rocket 3.8 23:05:03 10° N 23:11:14 77° E 23:11:14 77° E
Terra 2.4 23:16:05 55° NW 23:16:05 55° NW 23:19:57 10° NNW
Meteor 2-21 4.3 23:09:14 10° N 23:15:11 82° ENE 23:15:11 82° ENE
Meteor 2-21 Rocket 4.4 23:12:08 10° N 23:17:50 68° ENE 23:17:50 68° ENE
CZ-4B R/B 3.9 23:15:03 10° NNE 23:19:06 58° NNE 23:19:06 58° NNE
Timation 2 Rocket 4.0 23:27:44 74° NE 23:27:44 74° NE 23:33:26 10° NNE
CZ-2C R/B 4.5 23:23:50 10° NE 23:26:18 21° ENE 23:26:18 21° ENE
Cosmos 2369 4.0 23:23:51 10° NNW 23:28:55 59° WNW 23:28:55 59° WNW
ISS -0.1 23:32:40 10° NNW 23:32:51 10° NNW 23:33:01 10° NNW
Cosmos 1697 Rocket 3.1 23:33:30 10° NNW 23:38:08 60° N 23:38:08 60° N
SL-16 R/B 4.3 23:36:02 10° NNE 23:39:19 15° NE 23:39:58 15° ENE
Cosmos 1452 Rocket 4.2 23:36:53 10° NNW 23:40:54 50° NW 23:40:54 50° NW
Cosmos 1833 Rocket 3.8 23:53:01 35° W 23:53:43 36° WNW 23:58:53 10° N
